#timestamp,LO_Frequency,Hit,StdDev 
1661331615.3,286046995.9,N
1661331635.1,286046995.1,N
1661331636.0,286046995.1,N
1661331655.8,286046993.8,N
1661331675.7,286046994.5,N
1661331695.5,286046992.0,N
1661331715.4,286046996.3,N
1661331735.2,286046998.2,N
1661331755.0,286046997.4,N
1661331755.9,286046997.4,N
1661331775.8,286046994.1,N
1661331795.6,286046993.3,N
1661331815.4,286046999.4,N
1661331835.3,286046997.8,N
1661331855.1,286046999.2,N
1661331875.9,286046998.6,N
1661331895.7,286046998.7,N
1661331915.5,286046998.9,N
1661331935.4,286046998.9,N
1661331955.2,286046999.4,N
1661331975.0,286047000.5,N
1661331975.9,286047000.5,N
1661331995.8,286047005.6,N
1661332015.6,286047006.5,N
1661332035.5,286047005.3,N
1661332055.3,286047007.0,N
1661332075.1,286047010.1,N
1661332095.9,286047007.0,N
1661332115.7,286047004.5,N
1661332135.5,286047004.9,N
1661332155.4,286047002.9,N
1661332175.2,286047001.5,N
1661332195.1,286047003.1,N
1661332196.0,286047003.1,N
1661332215.8,286047002.7,N
1661332235.6,286046999.4,N
1661332255.5,286046995.5,N
1661332275.3,286046995.0,N
1661332295.2,286046999.2,N
1661332315.9,286046995.1,N
1661332335.7,286046995.4,N
1661332355.6,286046996.4,N
1661332375.4,286046995.3,N
1661332395.2,286046994.7,N
1661332415.1,286046994.8,N
1661332416.0,286046994.8,N
1661332435.8,286046996.1,N
1661332455.7,286047002.1,N
1661332475.5,286047005.2,N
1661332495.3,286047002.5,N
1661332515.2,286047001.6,N
1661332535.0,286047000.7,N
1661332535.9,286047000.7,N
1661332555.7,286046998.5,N
1661332575.6,286046997.4,N
1661332595.4,286046993.4,N
1661332615.3,286046996.4,N
1661332635.1,286046993.9,N
1661332636.0,286046993.9,N
1661332655.8,286046994.8,N
1661332675.7,286046994.1,N
1661332695.5,286046996.4,N
1661332715.3,286046996.8,N
1661332735.2,286047000.2,N
1661332755.0,286046996.7,N
1661332755.9,286046996.7,N
1661332775.8,286046997.5,N
1661332795.6,286046998.0,N
1661332815.4,286046997.0,N
1661332835.3,286046995.9,N
1661332855.1,286046991.8,N
1661332875.9,286046994.9,N
1661332895.7,286046995.8,N
1661332915.5,286046997.9,N
1661332935.4,286046996.0,N
1661332955.2,286046998.1,N
1661332975.0,286046997.7,N
1661332975.9,286046997.7,N
1661332995.8,286046991.8,N
1661333015.6,286046996.7,N
1661333035.5,286046995.2,N
1661333055.3,286046997.7,N
1661333075.1,286047002.6,N
1661333095.9,286047002.7,N
1661333115.7,286046998.4,N
1661333135.5,286046997.3,N
1661333155.4,286046996.1,N
1661333175.2,286046993.0,N
1661333195.1,286046991.1,Y
1661333196.0,286046986.3,P
1661333215.8,286046994.2,N
1661333235.6,286046993.0,N
1661333255.5,286046991.3,N
1661333275.3,286046989.8,N
1661333295.2,286046990.4,N
1661333315.9,286046993.6,N
1661333335.7,286046994.4,N
1661333355.6,286046992.5,N
1661333375.4,286046991.4,Y
1661333395.2,286046999.0,P
1661333415.1,286046998.5,N
1661333416.0,286046998.5,N
1661333435.8,286046999.0,N
1661333455.7,286046999.8,N
1661333475.5,286047000.8,N
1661333495.3,286047001.8,N
1661333515.2,286047001.3,N
1661333535.0,286047000.1,N
1661333535.9,286047000.1,N
1661333555.7,286047001.3,N
1661333575.6,286047001.3,N
1661333595.4,286047000.8,N
1661333615.3,286046996.5,N
1661333635.1,286046996.9,N
1661333636.0,286046996.9,N
1661333655.8,286047001.5,N
1661333675.7,286047000.7,N
1661333695.5,286046999.3,N
1661333715.3,286047000.4,N
1661333735.2,286047000.8,N
1661333755.0,286046998.3,N
1661333755.9,286046998.3,N
1661333775.8,286046997.8,N
1661333795.6,286046996.7,N
1661333815.4,286046997.7,N
1661333835.3,286046997.3,N
1661333855.1,286046996.8,N
1661333875.9,286046995.5,N
1661333895.7,286046996.8,N
1661333915.5,286046998.6,N
1661333935.4,286046993.7,Y
1661333955.2,286046996.0,P
1661333975.0,286046999.6,N
1661333975.9,286046999.6,N
1661333995.8,286046996.5,N
1661334015.6,286046995.2,Y
1661334035.5,286046999.2,P
1661334055.3,286046996.7,P
1661334075.1,286046996.5,P
1661334095.9,286046998.1,N
1661334115.7,286047001.6,N
1661334135.6,286047000.9,N
1661334155.4,286046998.3,N
1661334175.2,286046997.0,N
1661334195.1,286046998.0,N
1661334196.0,286046998.0,N
1661334215.8,286046994.1,Y
1661334235.7,286046993.7,P
1661334255.5,286046993.9,N
1661334275.3,286046993.5,P
1661334295.2,286046996.3,N
1661334315.9,286046995.6,N
1661334335.7,286046994.1,Y
1661334355.6,286047000.6,P
1661334375.4,286046998.3,N
1661334395.3,286046998.7,N
1661334415.1,286046998.8,N
1661334416.0,286046998.8,N
1661334435.8,286047000.6,N
1661334455.7,286046998.5,N
1661334475.5,286047001.1,N
1661334495.3,286046998.4,N
1661334515.2,286046998.4,N
1661334535.0,286046998.2,N
1661334535.9,286046998.2,N
1661334555.8,286046999.6,N
1661334575.6,286046998.0,N
1661334595.4,286046998.6,N
1661334615.3,286046997.2,N
1661334635.1,286046994.9,Y
1661334655.9,286046998.3,P
1661334675.7,286047001.1,P
1661334695.5,286046999.2,N
1661334715.4,286046996.9,N
1661334735.2,286046999.3,N
1661334755.0,286046997.2,N
1661334755.9,286046997.2,N
1661334775.8,286046996.6,N
1661334795.6,286046999.6,N
1661334815.5,286046999.5,N
1661334835.3,286046998.4,N
1661334855.1,286047000.3,N
1661334875.9,286047000.9,N
1661334895.7,286046999.7,N
1661334915.6,286047002.8,N
1661334935.4,286047001.2,N
1661334955.2,286046998.3,N
1661334975.1,286046999.5,N
1661334976.0,286046999.5,N
1661334995.8,286046997.5,N
1661335015.6,286046999.6,N
1661335035.5,286046999.2,N
1661335055.3,286046997.4,N
1661335075.2,286046997.3,N
1661335095.9,286046997.4,N
1661335115.7,286046994.9,Y
1661335135.6,286046999.3,P
1661335155.4,286046997.8,P
1661335175.2,286046999.1,N
1661335195.1,286046999.1,N
1661335196.0,286046999.1,N
